Temp
29 30 29 30 29 26 26 26 24 25 28 27 23 21 23 22 22 22 22 23 25 27 29 32 32 31 31 31 31 31 31 32 31 31 31 30 30 30 29 29 29 29 28 28 28 28 28 27 27 27 26 26 26 25 25 25 25 24 24 24 24 24 23
28 30 30 30 30 29 26 24 25 28 29 28 25 22 22 22 21 22 22 22 24 24 26 31 32 31 31 30 30 31 31 31 31 31 31 30 30 30 30 30 29 29 29 28 28 28 28 28 27 27 27 27 26 26 25 25 25 25 24 24 24 24 23
28 29 29 28 29 30 29 27 29 29 25 24 23 22 22 22 21 22 22 22 23 22 25 29 31 31 32 31 30 31 31 31 31 31 31 31 30 30 30 30 29 29 29 28 28 28 29 28 28 27 27 27 26 26 26 25 25 25 25 24 24 24 24
29 28 27 25 25 29 29 29 29 29 26 24 23 23 23 22 21 22 22 22 22 24 28 32 33 33 33 31 30 30 31 31 32 32 32 31 31 30 30 30 30 29 29 29 29 29 29 29 28 28 27 27 27 26 26 26 25 25 25 25 24 24 24
27 26 26 26 26 27 27 26 26 26 26 26 25 24 23 23 22 22 22 22 23 27 31 34 35 35 34 32 31 31 31 31 32 32 32 32 31 31 30 30 30 30 30 30 29 29 29 29 29 28 28 27 27 27 26 26 26 25 25 25 25 24 24
24 25 28 30 29 29 28 26 25 26 26 25 23 23 23 24 22 22 22 21 23 29 31 33 36 36 35 33 32 31 31 31 32 32 32 32 32 31 31 31 31 30 30 30 30 29 29 29 29 28 28 28 27 27 26 26 26 25 25 25 25 25 24
26 28 30 29 30 30 30 29 28 28 27 25 22 22 22 23 22 23 23 21 24 31 32 32 36 37 36 34 31 32 32 31 31 32 32 32 32 32 31 31 31 31 31 30 30 29 29 29 29 28 28 28 27 27 27 26 26 26 26 25 25 25 24
27 29 30 29 30 30 29 29 29 29 28 27 26 25 24 23 22 23 23 21 25 31 31 30 33 34 34 32 30 31 32 31 31 31 32 32 32 32 31 31 31 31 31 30 30 29 28 28 28 28 28 28 28 27 27 27 27 26 26 26 25 25 25
23 25 26 27 28 28 27 28 29 29 29 29 29 27 24 23 22 23 23 21 25 31 30 28 30 30 32 34 32 30 31 31 31 31 31 32 31 31 31 31 31 31 31 30 30 29 28 27 28 28 28 28 28 28 27 27 27 27 26 26 26 25 25
21 21 22 22 23 25 27 29 29 29 29 29 27 25 23 22 23 23 23 22 26 32 32 30 30 30 31 34 32 30 30 31 31 31 31 31 31 31 31 31 31 31 31 30 30 29 28 27 28 28 28 28 28 28 28 27 27 27 26 26 26 25 25
21 21 21 21 22 22 23 26 28 29 29 29 28 25 22 23 23 22 23 24 26 30 33 32 32 31 31 34 34 32 33 32 31 31 30 30 30 31 31 30 30 30 30 30 30 29 28 28 28 28 28 28 28 28 28 28 28 27 27 26 26 26 25
20 20 20 21 21 21 21 23 25 28 29 29 27 24 24 26 23 21 25 27 25 28 34 35 34 33 32 34 35 34 33 33 31 29 29 29 30 30 30 30 30 30 30 30 30 29 29 28 28 28 28 28 28 28 28 28 28 27 27 27 26 26 25
19 20 20 21 21 21 22 22 24 26 28 28 26 25 27 27 24 23 27 27 26 30 35 34 34 35 34 35 35 33 32 32 33 33 32 30 30 30 30 30 30 30 30 30 30 29 29 28 28 28 28 28 28 28 28 28 28 27 27 27 26 26 25
19 19 20 21 21 21 22 22 23 25 27 28 27 27 29 28 27 27 29 27 28 32 35 35 36 35 33 34 33 32 33 34 35 35 34 31 30 30 30 29 29 30 30 30 29 29 29 28 28 28 28 28 28 28 28 28 28 28 27 27 26 26 25
18 19 20 21 21 21 21 22 23 24 25 27 28 28 29 28 27 29 29 26 27 30 33 34 35 32 31 32 33 34 35 35 35 34 33 32 31 30 30 29 29 29 30 29 29 29 29 28 27 28 28 28 28 28 28 28 28 28 27 27 26 26 26
18 20 20 20 20 21 21 22 23 24 24 25 27 28 29 28 27 27 27 25 26 29 30 31 32 31 31 32 34 35 34 32 32 33 34 35 34 31 30 29 29 29 30 29 29 29 29 28 28 28 28 28 28 28 28 28 28 28 27 27 26 26 26
18 19 19 19 20 21 22 23 24 25 26 27 27 28 30 30 29 27 26 26 29 31 30 31 32 32 32 32 32 33 32 30 30 31 33 34 33 31 28 28 29 29 29 30 30 29 29 28 28 29 29 28 28 28 28 28 28 28 27 27 26 26 26
17 19 18 19 20 21 22 23 23 23 25 27 28 28 29 30 30 30 30 31 31 31 30 31 33 33 32 31 29 27 27 29 30 29 29 29 29 28 27 28 29 29 29 29 29 29 29 29 29 29 29 29 29 29 28 28 28 28 27 27 27 26 26
17 18 18 20 21 21 23 24 21 20 22 24 26 29 30 30 30 30 31 31 32 31 30 31 33 32 29 27 25 23 22 23 26 27 27 26 25 26 26 27 28 29 29 29 29 28 28 29 29 29 29 29 29 28 28 28 28 28 27 27 27 26 26
18 18 18 20 21 21 23 23 21 20 21 20 22 26 28 29 29 29 30 30 31 31 30 30 30 29 26 25 24 22 21 22 22 23 25 23 22 23 23 24 27 28 28 28 28 28 28 29 29 29 29 29 29 28 28 28 28 27 27 27 26 26 26
18 18 18 19 20 21 23 22 20 20 20 19 19 21 24 26 27 27 29 30 31 30 29 28 27 27 27 28 26 23 21 21 21 21 21 21 20 21 21 21 23 24 25 27 27 28 28 28 28 29 29 29 28 28 28 28 27 27 27 27 26 26 26
18 18 18 19 20 21 21 20 19 19 20 19 19 19 22 24 23 23 26 29 30 30 29 26 25 26 28 30 29 25 21 21 20 20 20 20 20 20 20 20 21 21 22 26 28 29 29 28 28 29 29 29 28 28 27 27 27 27 27 27 26 26 26
18 18 18 18 19 21 20 19 19 19 19 19 18 19 22 23 19 18 21 24 27 30 29 25 25 28 30 31 29 24 21 20 20 20 20 20 20 20 19 20 21 20 21 24 27 28 28 27 28 29 29 29 28 27 27 27 27 27 27 27 27 27 26
18 18 18 18 20 21 20 18 19 19 19 18 19 21 22 20 17 17 19 20 23 26 26 25 27 29 31 30 27 21 19 20 19 19 19 20 20 20 20 20 20 20 21 23 26 26 26 27 28 28 29 29 28 27 27 27 27 27 27 27 27 27 27
18 18 18 18 20 21 20 19 19 19 19 20 21 21 20 17 17 18 19 19 21 22 23 25 28 27 25 24 22 19 18 19 18 18 19 19 19 19 19 19 20 20 20 21 22 23 24 26 28 28 29 28 27 27 27 26 27 27 27 27 27 27 27
18 18 18 18 20 20 19 19 19 19 21 22 20 19 17 17 17 19 19 19 20 20 21 23 24 22 19 19 19 19 19 19 18 18 19 19 19 19 19 19 19 20 20 20 20 20 22 24 26 27 28 27 26 26 26 26 27 28 27 27 27 27 27
17 18 17 18 19 19 18 19 20 19 19 20 18 17 17 18 17 18 18 19 19 19 20 20 20 19 19 19 19 18 18 18 19 19 19 19 19 19 19 19 18 19 19 19 19 19 20 22 24 26 26 26 26 25 26 27 28 28 27 28 28 27 27
18 18 18 19 19 18 18 19 20 19 18 18 17 17 17 17 17 17 17 18 18 19 19 19 19 19 19 18 18 18 18 18 18 19 19 19 19 19 18 18 18 18 19 19 19 19 19 20 22 23 24 25 25 25 25 27 27 27 28 28 28 27 27
17 18 19 19 18 17 17 18 18 18 17 17 17 17 17 17 17 17 17 17 17 18 18 18 19 18 18 18 18 18 18 18 18 19 19 19 19 18 18 18 18 18 18 18 18 19 18 19 20 21 22 23 23 23 24 25 26 27 28 28 28 27 27
16 17 18 18 17 17 17 17 17 17 17 17 16 16 16 16 17 17 16 16 17 17 17 17 17 17 17 17 17 18 18 18 18 18 18 19 18 18 18 18 18 18 18 18 18 18 18 18 19 19 19 20 20 21 23 24 24 25 26 27 28 28 27
15 17 17 17 17 17 16 17 17 17 16 16 15 15 15 15 16 17 17 17 17 17 16 16 16 16 17 17 17 18 18 18 18 18 19 19 18 18 18 18 18 18 18 18 18 18 18 18 18 19 19 19 19 20 22 23 24 24 25 26 27 27 27
15 16 17 17 16 16 17 17 17 17 16 16 16 15 15 15 15 16 16 16 17 17 17 16 16 16 16 17 17 17 18 18 18 18 18 18 19 18 18 18 18 18 18 18 19 18 18 19 19 19 19 19 19 20 21 22 23 24 24 24 25 26 26
13 15 17 17 17 17 17 17 17 16 16 16 16 16 16 15 15 15 16 16 16 16 17 17 16 16 16 16 16 17 17 17 17 18 18 18 18 18 18 18 18 18 19 19 19 18 18 18 19 18 18 18 19 19 20 21 22 23 23 23 23 24 24
13 15 17 17 18 18 17 16 16 16 15 16 16 16 16 15 15 15 15 15 16 16 16 16 16 16 16 16 16 16 17 17 17 17 18 18 18 18 18 18 18 18 19 19 19 19 19 19 18 18 18 18 19 19 19 20 21 22 22 22 22 22 22
13 15 16 16 17 18 17 16 16 16 16 17 18 16 15 15 15 14 14 14 15 16 16 16 16 16 16 16 16 16 16 16 17 17 17 17 17 17 18 18 18 18 18 18 18 18 18 19 19 18 18 19 19 19 20 20 20 21 21 21 21 21 20
13 14 14 15 16 16 16 16 16 15 16 17 17 16 15 15 14 14 14 14 14 14 15 16 16 15 15 15 16 16 16 16 17 17 17 17 17 17 17 17 17 17 18 18 18 18 18 18 19 19 19 19 19 20 20 20 20 20 20 20 20 19 19
13 14 14 14 15 15 15 15 16 16 16 16 15 15 15 15 14 14 14 14 14 14 14 15 15 14 14 15 15 16 16 16 16 16 16 17 17 17 17 17 17 17 17 17 17 17 17 18 18 19 19 19 19 19 19 19 20 20 20 20 20 20 20
Height
688 690 694 694 706 721 726 728 731 725 716 725 746 754 746 749 762 757 742 732 717 708 700 686 687 690 687 687 686 685 685 681 683 688 689 690 691 691 693 694 695 698 701 705 707 710 714 717 721 724 726 729 732 735 738 740 743 747 750 752 754 757 760
689 682 688 692 692 702 720 728 718 711 716 724 737 755 754 756 767 756 738 732 723 719 712 692 688 694 691 688 686 684 683 682 684 684 683 684 683 684 685 686 688 692 695 698 701 704 707 710 714 716 719 723 726 731 734 736 739 742 744 747 750 753 756
688 681 691 702 696 691 702 708 701 709 731 738 739 752 758 762 769 755 738 732 723 717 710 696 693 693 689 686 686 684 683 681 681 679 678 679 678 680 682 683 686 687 689 692 694 698 701 704 708 710 714 719 723 727 730 733 735 736 739 743 746 749 752
687 687 697 710 707 697 695 700 700 704 717 727 733 739 741 751 762 755 743 734 719 704 694 689 689 685 682 684 684 683 680 676 675 674 672 673 674 675 676 678 679 680 682 684 686 691 694 698 703 705 710 716 719 723 726 729 732 734 738 741 743 746 748
691 697 697 699 702 702 703 708 711 709 709 713 722 728 724 732 746 751 749 739 713 690 682 678 676 674 674 676 677 676 673 669 667 666 665 666 667 668 669 670 671 673 675 677 681 685 688 693 698 702 707 711 714 718 721 724 728 731 734 736 739 742 745
697 696 686 680 684 688 695 703 705 707 709 713 727 736 723 717 727 732 739 737 706 679 675 671 666 666 665 666 669 669 667 665 663 660 658 658 659 660 661 661 663 666 669 672 676 680 685 690 694 699 703 706 710 714 717 720 723 726 728 730 734 737 741
692 686 676 673 674 675 680 688 691 696 703 707 722 734 723 717 722 720 726 731 700 669 667 666 660 658 657 659 664 664 662 661 659 657 654 653 653 653 654 656 659 662 664 667 671 676 681 685 689 693 697 701 704 707 710 715 718 719 722 725 729 733 737
687 680 675 673 673 677 683 684 683 689 696 696 700 709 712 716 720 719 728 730 698 666 664 665 659 657 656 658 660 660 659 657 655 655 653 652 653 652 653 656 658 660 662 666 670 674 677 680 684 688 692 695 698 702 706 710 711 713 717 721 726 730 733
706 699 693 688 682 683 687 685 682 683 686 690 693 699 709 714 711 711 723 722 694 668 666 667 665 663 660 656 656 658 658 656 654 654 652 652 652 652 654 655 657 659 662 664 667 669 671 675 679 682 686 689 692 696 700 703 705 708 713 718 722 725 728
724 720 714 708 701 695 688 681 680 680 682 687 692 698 711 715 707 703 708 706 686 669 665 666 666 667 663 655 654 657 657 654 653 652 651 651 650 650 651 652 654 656 658 660 662 664 666 669 673 676 680 683 687 690 694 696 699 704 709 713 717 721 724
723 724 720 712 711 711 702 690 682 679 679 681 685 693 701 703 704 703 695 689 682 672 667 665 664 665 664 657 653 653 651 649 650 650 650 649 648 648 647 648 651 652 654 656 657 659 661 664 667 671 674 677 681 685 688 691 695 700 704 708 712 716 719
722 723 719 710 711 715 711 702 690 679 676 677 680 686 685 685 699 702 686 680 684 676 665 662 660 661 661 656 651 650 648 648 649 649 650 649 647 646 646 647 648 649 651 652 653 655 657 659 663 666 669 673 676 679 683 686 691 695 699 703 707 710 714
723 720 716 709 709 710 705 701 694 682 677 675 673 675 675 676 685 686 676 678 682 672 662 659 655 653 652 648 646 647 647 646 645 644 646 647 647 646 646 645 644 645 646 646 648 650 651 655 659 662 665 669 672 676 679 682 686 689 693 698 701 704 708
723 718 714 708 707 707 702 697 692 684 676 670 667 669 670 671 673 670 670 677 676 663 655 651 646 645 646 645 644 645 645 643 641 642 643 645 646 645 644 643 641 640 640 641 642 644 647 650 654 657 661 663 667 670 673 677 680 683 688 692 695 699 701
726 715 710 708 706 706 704 697 690 684 677 671 668 668 669 671 673 670 669 676 674 661 651 647 643 644 647 647 644 642 640 640 641 642 642 641 642 642 640 639 638 638 637 638 640 642 644 645 647 651 654 657 660 664 667 671 674 678 683 686 689 693 694
730 714 712 712 705 701 697 688 682 680 679 675 668 665 664 666 670 671 671 674 671 660 653 650 647 646 648 646 643 640 640 642 643 642 640 636 636 637 636 635 635 635 635 635 637 637 637 638 641 644 647 652 656 659 662 665 668 674 679 681 684 686 687
731 717 716 715 709 704 691 677 673 672 668 667 664 660 656 654 658 663 663 659 655 651 651 652 649 646 646 644 642 641 641 642 643 642 638 634 632 633 634 634 633 631 630 630 630 631 631 633 636 637 641 645 648 650 654 658 664 670 673 676 679 681 684
733 721 717 717 714 707 686 669 672 672 663 660 659 655 652 648 646 645 643 642 642 644 648 648 644 641 640 640 641 643 642 642 642 641 639 636 634 632 632 631 629 628 626 625 625 626 628 630 631 634 638 640 642 645 650 656 661 664 667 670 673 676 680
732 722 720 720 711 693 674 665 669 669 664 661 656 647 642 640 639 638 639 639 637 637 641 638 634 635 638 640 642 644 643 642 642 641 638 637 636 633 630 628 626 624 624 624 623 623 624 626 629 633 636 638 642 646 650 654 657 658 661 664 667 671 675
729 727 727 718 698 679 669 669 670 667 667 670 666 653 640 637 639 640 641 639 634 634 635 633 633 636 639 642 643 643 642 641 641 641 638 637 636 634 630 627 623 620 619 619 620 620 622 625 628 631 633 636 640 644 647 650 653 655 659 662 664 669 672
724 727 724 711 698 686 677 677 678 676 677 681 682 675 656 642 642 642 639 637 635 633 634 634 636 638 639 642 643 641 641 639 639 639 637 636 636 633 630 626 621 617 616 615 616 618 620 623 626 629 632 636 639 642 644 647 650 654 658 660 662 665 668
719 723 721 715 710 698 685 682 682 679 678 676 681 686 669 649 648 649 643 637 633 631 634 638 639 640 644 646 642 638 639 639 637 637 636 634 633 632 629 625 619 616 615 613 614 616 618 620 623 626 630 634 637 640 643 646 649 652 653 655 657 661 663
716 721 723 720 711 693 683 684 681 676 675 673 679 685 670 652 655 658 652 644 636 630 632 637 638 642 647 646 639 637 639 638 636 636 635 633 632 630 627 624 620 617 614 613 613 614 616 618 620 624 627 630 634 637 640 642 645 647 647 648 651 654 658
710 713 715 711 700 685 679 681 677 671 670 673 681 681 666 656 660 660 655 651 641 633 634 635 634 636 638 637 636 637 638 637 637 637 635 633 631 629 625 622 619 617 614 612 613 615 616 617 619 622 626 629 632 634 637 640 642 641 641 642 645 649 654
706 709 711 706 693 680 675 677 674 668 667 672 679 676 667 665 663 656 652 650 642 637 637 633 628 629 631 631 634 637 637 637 639 638 635 633 631 628 626 622 619 617 615 614 615 616 617 618 619 621 624 627 630 632 635 637 637 635 637 641 645 649 653
704 703 706 706 694 678 673 674 669 666 669 676 678 672 669 670 663 653 649 647 642 639 639 634 630 632 634 634 635 637 638 638 639 639 636 633 631 629 627 624 621 619 617 616 617 618 618 619 620 622 623 625 628 631 633 632 631 633 638 643 646 649 651
701 702 704 704 693 677 671 670 668 671 676 679 676 672 669 667 662 656 651 646 642 641 642 642 638 635 635 636 637 638 639 638 638 637 634 631 630 628 626 624 622 621 619 619 620 621 621 621 621 623 624 625 627 629 629 629 631 635 639 642 644 647 649
693 697 692 685 678 672 668 666 668 675 677 674 673 672 669 665 663 659 653 647 643 642 645 648 645 639 637 638 638 639 640 639 637 636 632 630 629 627 627 626 624 623 623 624 624 624 624 624 624 624 625 626 628 629 629 630 633 636 637 640 642 645 646
687 684 674 667 668 670 668 665 666 670 671 670 671 671 667 664 662 659 656 651 645 643 647 651 649 644 642 640 639 640 639 637 636 634 632 632 630 629 629 629 628 627 627 628 628 628 628 628 627 627 627 628 629 631 632 633 634 635 636 638 639 640 642
687 679 668 663 667 669 667 665 664 665 668 671 672 670 667 663 660 657 656 653 648 645 647 651 653 650 646 643 641 638 636 634 632 631 631 631 630 630 630 631 632 631 631 631 631 631 632 631 631 631 630 631 632 633 632 632 633 634 635 636 636 637 639
691 681 668 664 667 668 667 665 663 663 668 672 671 670 670 666 661 658 655 652 649 645 645 650 655 655 651 647 643 638 635 634 632 630 630 630 629 629 629 630 632 632 632 632 633 633 634 634 633 633 633 633 633 633 632 632 632 633 634 635 636 636 637
690 680 668 664 667 666 663 662 662 663 669 671 668 667 668 667 665 663 659 655 650 643 641 646 653 656 655 653 649 643 639 637 635 634 633 633 632 632 631 631 631 631 631 632 633 633 634 634 634 634 633 633 633 632 631 631 631 632 633 634 635 636 636
693 681 670 665 667 666 663 662 662 663 667 668 666 665 667 669 670 667 665 662 655 646 640 640 647 656 660 658 655 650 645 642 639 638 636 636 636 635 635 635 634 633 633 634 633 634 634 634 634 633 632 632 632 631 631 631 631 631 632 633 634 635 636
694 681 670 664 664 665 665 662 661 664 667 667 665 665 668 672 674 672 671 669 660 651 644 640 644 656 664 664 661 656 650 646 644 642 640 640 638 638 638 637 637 637 637 637 637 636 636 635 634 634 634 633 633 633 632 632 632 632 632 633 634 634 635
687 676 671 666 662 661 662 659 659 662 664 662 662 666 668 671 673 674 675 674 665 656 650 645 645 656 667 670 665 658 651 648 646 644 643 642 641 640 640 639 639 639 639 639 639 639 638 637 637 637 637 636 635 635 634 633 633 633 634 634 634 635 636
685 677 673 669 664 661 660 658 658 661 662 659 660 664 667 669 671 673 675 675 669 662 656 651 650 660 672 675 668 658 651 648 646 645 645 644 643 643 642 642 642 642 641 642 641 641 640 639 639 639 639 638 637 636 636 635 635 635 635 636 636 637 638
684 675 669 667 664 661 659 659 659 660 661 660 660 662 665 669 671 672 672 672 670 666 662 658 658 667 676 677 668 658 651 648 647 646 645 644 644 644 644 645 645 645 644 644 643 642 641 640 640 640 640 639 639 639 638 638 638 638 638 639 639 639 639
Wind_Speed
11 13 10 9 8 5 3 4 7 6 5 7 4 4 2 1 2 4 2 3 6 3 5 6 6 8 10 12 14 15 16 17 14 11 11 13 15 16 17 17 18 19 18 19 23 27 28 30 31 34 37 39 40 39 38 40 41 41 41 43 44 44 43
10 9 11 10 10 9 6 6 7 3 6 4 4 2 2 2 4 5 2 5 5 3 5 5 5 8 9 11 13 14 16 15 14 12 12 14 16 17 19 19 18 17 17 18 23 28 31 33 35 38 41 42 41 40 40 40 40 41 43 44 44 44 43
7 5 8 7 7 8 6 5 7 5 3 4 3 2 4 4 4 4 3 5 5 6 5 3 5 9 10 11 12 13 15 14 13 13 13 14 15 15 16 16 15 16 17 18 23 28 31 34 36 39 41 40 39 39 40 41 42 44 45 43 43 43 43
6 5 6 6 6 7 3 2 5 4 3 4 4 4 4 4 4 3 4 5 5 7 7 6 8 11 11 11 10 11 14 15 14 14 13 14 14 14 14 15 16 17 18 20 25 30 32 34 36 38 38 37 37 39 40 40 41 42 42 41 41 42 42
5 4 5 9 10 8 5 4 5 4 2 2 3 2 3 4 4 3 3 6 5 5 5 10 11 11 11 12 11 12 14 15 15 15 15 14 14 14 14 15 16 18 18 20 26 32 33 34 35 34 34 36 38 38 38 40 40 39 40 41 42 42 41
3 4 8 13 15 12 10 7 7 7 4 4 4 4 3 3 5 5 4 6 7 4 5 8 10 10 11 12 13 12 12 14 15 15 16 16 15 15 16 17 17 17 17 17 22 28 29 29 30 31 32 34 35 36 38 40 39 40 41 43 43 42 40
4 6 8 10 12 14 12 10 9 8 6 6 6 7 4 3 3 2 3 5 9 6 7 9 9 10 10 11 12 12 11 12 13 14 15 15 14 14 15 15 14 14 15 16 19 23 25 27 29 31 32 33 35 37 39 39 39 41 43 43 43 42 40
3 5 6 5 4 6 8 8 8 8 8 8 8 6 4 4 4 2 2 7 8 5 5 8 8 8 8 7 8 11 11 10 11 13 13 12 12 12 11 10 10 11 13 13 14 16 19 23 27 29 31 33 35 37 38 38 41 44 43 41 41 40 41
4 4 5 5 4 2 4 5 7 9 11 11 7 3 4 4 7 8 6 8 7 5 3 4 7 6 7 8 7 8 9 8 7 9 10 10 10 9 8 8 9 11 12 12 13 13 15 20 26 28 31 34 34 36 37 39 42 43 41 40 39 39 40
7 4 5 5 2 3 3 3 8 12 13 14 10 4 4 6 7 9 7 7 6 6 4 5 7 6 7 10 7 5 7 8 7 7 8 9 9 9 10 10 11 12 13 13 14 13 14 20 25 28 31 33 34 36 38 41 42 40 40 40 39 39 39
4 2 5 4 2 3 5 4 6 11 13 15 12 8 8 7 5 7 8 7 5 7 5 6 8 7 8 10 8 6 8 8 7 7 7 6 7 9 10 10 10 12 12 13 15 14 15 21 26 29 31 33 34 35 37 39 40 38 39 40 39 39 39
2 3 9 10 5 4 6 8 8 10 12 15 15 14 9 8 6 10 10 8 7 8 7 8 9 8 8 9 9 9 7 7 7 6 5 5 7 8 8 9 10 12 13 14 15 15 15 19 25 28 30 32 34 35 36 38 38 38 39 39 39 39 39
7 6 10 11 7 5 7 10 12 11 12 16 19 17 10 10 10 14 10 10 10 8 7 9 10 9 10 10 10 7 5 6 7 6 6 7 8 8 9 10 12 13 14 14 15 15 15 17 21 25 27 30 32 33 34 36 37 39 39 39 40 40 39
9 9 9 8 6 5 7 10 11 12 14 16 18 15 12 12 13 12 8 10 11 9 8 10 10 8 7 6 4 3 5 6 7 7 7 7 7 8 10 11 12 13 14 15 15 15 15 15 18 22 25 28 31 33 34 36 38 40 40 39 39 39 40
8 9 7 6 8 8 9 10 10 11 13 15 15 13 10 10 11 10 9 9 9 8 6 7 9 5 2 4 5 6 7 7 7 7 8 8 9 9 11 12 11 12 13 13 13 14 15 16 20 24 26 29 32 33 34 36 38 39 39 39 39 40 42
5 6 6 10 13 12 10 12 11 10 10 10 10 10 9 10 10 10 12 10 8 7 6 7 9 8 6 7 9 9 8 6 5 7 9 9 10 10 10 11 11 12 13 13 13 15 16 18 22 26 28 29 29 31 33 36 38 37 38 38 39 41 42
5 7 7 10 11 9 8 8 7 8 10 10 9 8 9 11 11 10 12 11 8 8 7 7 9 10 10 10 8 8 7 5 5 8 9 9 10 9 8 8 10 12 13 13 14 16 16 18 24 30 32 30 31 35 38 38 36 35 37 38 39 40 39
4 9 9 7 5 5 5 2 1 4 8 11 13 13 11 11 12 11 10 8 8 9 9 10 13 13 8 5 4 4 4 4 4 6 8 8 9 9 8 7 9 10 11 11 12 14 17 22 28 31 31 32 34 36 36 34 34 36 38 38 39 38 38
3 7 6 3 6 7 4 5 5 4 4 3 7 14 16 13 13 13 10 8 9 10 11 13 14 10 3 4 4 4 4 3 2 5 6 6 7 9 8 7 8 9 9 10 10 12 18 24 26 26 28 30 30 29 30 32 34 37 38 38 38 37 36
2 3 2 4 7 8 8 6 7 7 6 9 9 9 14 11 9 10 10 10 9 9 10 11 8 5 6 5 3 3 3 2 0 3 5 6 7 8 8 8 9 9 9 10 11 13 16 19 21 23 27 29 27 26 30 33 33 34 34 33 33 33 33
2 3 4 4 6 10 7 3 4 4 2 4 4 4 8 7 3 6 8 10 10 8 8 7 5 6 6 2 1 1 2 2 1 2 4 5 7 7 8 8 8 8 9 12 14 14 13 15 18 21 22 24 24 24 27 29 29 29 29 29 31 32 33
3 3 4 3 3 5 3 2 1 1 3 4 3 3 6 6 3 2 5 8 10 9 6 5 6 6 5 3 5 3 2 3 3 3 4 4 5 6 7 7 6 7 7 10 15 16 15 16 21 22 21 22 24 23 23 25 26 27 28 30 32 33 34
4 4 4 3 3 4 5 4 4 4 3 1 4 2 5 5 8 10 7 7 10 10 7 7 8 7 6 7 6 2 2 3 3 3 4 4 4 5 6 6 6 7 7 4 10 14 15 16 19 22 23 24 24 22 23 26 26 27 30 33 35 36 36
6 6 5 3 3 5 4 3 6 7 3 3 5 3 6 6 12 13 10 10 11 9 7 9 10 8 7 6 4 1 1 2 3 3 4 4 5 5 7 9 8 8 8 4 4 5 7 12 17 20 23 24 22 21 23 23 23 27 32 36 37 37 35
7 8 5 4 4 4 3 4 7 7 3 3 5 5 4 9 15 13 10 10 9 5 5 7 8 5 3 4 5 4 3 2 2 3 3 2 3 5 7 11 11 11 12 12 11 10 6 5 15 20 22 21 19 20 20 20 24 31 34 33 33 33 32
6 6 5 4 5 3 2 3 3 4 2 2 3 5 6 10 14 13 10 8 7 4 3 3 3 5 6 7 8 6 5 4 3 4 4 3 5 6 8 12 13 11 12 14 15 16 15 8 7 17 21 19 16 16 17 20 28 31 27 24 26 28 29
5 4 5 6 5 3 3 3 1 4 1 2 4 7 8 8 12 12 9 7 8 7 3 1 4 8 9 8 8 7 6 6 5 6 6 7 8 8 9 12 14 12 10 12 14 16 17 16 10 5 13 15 15 16 18 24 28 25 21 23 25 26 27
5 5 6 5 4 3 4 2 2 2 1 3 4 5 5 6 9 9 7 7 8 8 5 2 3 6 7 7 7 7 6 6 7 8 9 9 9 9 10 11 13 13 11 11 14 17 17 18 18 12 5 4 8 11 14 17 19 20 22 24 24 25 27
4 5 5 3 5 3 1 2 4 5 1 4 5 4 2 3 5 6 6 7 8 9 7 4 2 4 6 6 7 7 7 7 7 9 9 8 8 9 10 11 13 14 12 11 13 16 18 19 18 17 15 10 4 2 6 7 9 16 21 22 23 26 29
6 7 5 5 6 3 3 4 5 6 4 3 5 5 3 2 3 4 4 5 7 9 9 6 5 5 6 6 6 7 7 7 8 9 9 9 9 9 10 13 14 13 13 13 13 14 16 18 17 16 15 14 10 8 7 5 4 10 16 20 23 25 28
6 5 3 5 5 4 4 4 5 7 5 2 2 4 5 6 6 5 3 3 5 8 10 9 7 7 7 6 5 6 8 8 8 9 10 10 11 11 13 14 15 13 12 13 13 13 15 17 17 15 14 14 13 11 9 6 3 3 8 15 20 22 25
6 5 2 3 4 4 3 4 4 5 4 2 3 5 6 8 8 9 7 4 2 5 9 9 8 8 8 7 6 6 6 6 7 7 8 9 10 11 12 14 15 14 13 12 13 13 14 16 16 15 15 16 16 15 13 9 5 3 3 7 13 17 20
8 9 5 3 4 1 2 5 5 4 3 2 5 7 7 9 9 10 10 9 5 2 8 9 8 7 7 7 5 5 5 5 5 6 7 8 9 9 11 13 14 13 12 13 14 14 14 15 16 16 17 18 18 18 17 14 10 6 4 4 6 8 11
7 7 5 4 4 2 2 5 7 5 3 4 7 7 5 6 8 9 10 11 8 5 6 9 9 6 5 7 4 2 5 5 5 5 6 7 7 8 10 12 13 13 12 12 12 12 13 15 16 16 17 18 18 18 17 15 12 8 5 4 4 4 4
8 8 7 4 0 1 3 5 8 6 4 5 8 6 4 5 6 8 9 10 10 8 8 8 10 8 6 9 6 1 5 4 4 6 7 7 8 9 11 11 11 12 12 11 10 10 10 12 13 14 15 16 16 15 15 14 12 9 6 5 4 4 5
13 14 10 6 3 1 1 4 7 5 3 4 9 7 4 6 7 8 8 8 9 9 8 9 11 9 7 11 7 1 5 5 5 6 8 10 11 11 11 11 10 10 10 10 9 9 8 9 10 11 12 12 12 12 12 12 11 10 8 7 6 7 8
13 12 7 5 5 3 2 3 5 5 1 3 8 8 7 8 8 8 7 7 8 8 8 9 10 8 7 10 7 3 5 6 7 8 9 11 12 12 12 12 11 10 9 9 10 10 9 8 8 8 8 8 9 9 10 11 12 12 11 10 9 8 9
Wind_Direction
190 186 176 163 165 173 170 152 184 204 139 136 219 246 190 110 260 259 219 250 290 300 283 270 222 220 211 204 214 214 220 226 222 219 204 199 206 203 203 206 206 207 204 203 205 205 205 204 203 203 205 205 206 206 205 206 208 208 208 208 209 210 210
222 185 161 178 180 150 136 188 194 122 83 141 184 245 278 242 249 275 233 231 270 274 273 270 192 207 223 211 209 215 222 225 224 221 210 205 207 204 206 206 206 205 202 203 205 205 206 204 202 204 205 206 206 206 206 206 207 208 209 210 210 211 211
207 141 152 191 199 177 170 183 170 130 129 188 163 184 228 222 241 280 278 254 240 210 230 258 198 207 222 219 210 212 220 222 223 223 217 212 210 209 208 206 206 204 203 204 204 205 207 205 204 205 206 205 204 206 207 207 209 210 210 210 210 211 211
160 132 165 190 211 225 222 131 156 160 169 178 170 179 182 186 224 258 296 290 253 222 202 182 206 218 217 219 215 211 217 219 218 219 217 214 211 209 206 204 206 205 204 205 204 205 205 204 205 205 204 203 203 205 207 208 210 211 211 211 211 212 212
149 159 197 191 192 210 207 186 194 188 165 154 166 200 168 165 194 200 253 270 257 241 197 178 199 216 213 214 214 214 218 217 216 215 216 216 213 210 207 205 205 204 205 205 204 206 206 204 205 204 201 201 203 205 205 207 209 210 211 212 212 213 213
185 204 208 196 194 195 190 198 202 190 177 131 147 244 240 175 192 181 193 255 262 248 197 187 197 209 214 214 211 217 223 220 218 216 216 217 214 210 208 207 205 203 202 204 204 205 205 203 202 201 200 201 202 203 204 206 207 209 210 211 211 212 212
215 229 223 211 209 202 193 201 199 186 176 147 173 228 223 184 222 159 138 255 268 247 195 193 201 207 215 215 208 214 224 224 221 221 222 222 220 218 214 209 206 201 201 203 202 202 201 200 200 198 198 200 201 203 204 205 206 209 211 211 211 211 211
278 273 290 302 272 202 202 216 199 182 187 187 201 211 172 183 218 169 193 251 268 269 212 202 217 220 225 234 220 215 225 228 223 222 226 227 226 227 220 210 205 202 202 202 200 200 199 199 199 197 197 199 201 203 203 203 207 210 210 210 210 209 210
243 267 289 299 310 214 213 226 206 199 195 192 205 186 135 208 206 176 202 239 249 281 282 244 251 253 253 254 234 219 231 239 231 226 229 227 227 226 214 203 201 199 199 200 199 200 198 197 197 197 198 199 200 201 202 203 208 210 209 208 208 208 209
214 220 225 221 264 275 258 230 209 208 200 192 198 188 182 223 205 177 203 237 253 286 293 254 250 252 257 259 254 243 241 241 234 226 226 222 217 216 207 198 196 197 198 201 200 199 198 196 196 196 198 200 200 201 202 204 207 207 206 207 207 207 208
215 248 253 237 285 288 287 289 231 213 208 201 200 209 208 198 180 200 218 212 233 267 253 232 240 237 244 257 263 256 242 240 238 228 228 227 218 220 212 198 196 196 198 201 201 199 199 197 197 197 198 199 200 201 202 204 206 205 205 206 205 206 207
259 295 286 280 284 260 261 281 262 229 214 204 206 220 206 150 169 230 229 190 205 246 239 225 230 224 231 248 253 253 246 243 251 252 247 240 235 234 221 203 200 198 199 202 201 200 199 198 198 198 199 200 200 201 203 203 203 204 204 203 204 205 206
304 292 281 277 278 252 239 255 258 249 232 214 214 220 197 162 202 236 225 185 198 232 234 229 228 213 216 230 231 234 242 244 253 261 253 237 232 231 221 210 204 200 201 202 200 200 198 196 197 197 198 200 200 201 203 202 202 203 203 202 203 204 205
308 293 279 274 280 279 267 262 257 254 247 232 226 224 206 198 222 241 221 187 197 218 219 223 230 215 210 228 224 205 226 240 248 258 261 252 238 230 226 222 214 207 205 203 200 199 196 194 196 196 197 198 198 200 201 200 202 203 201 201 202 203 205
306 295 298 302 302 299 286 272 262 257 257 250 241 233 216 212 226 239 234 206 210 239 243 238 251 263 289 286 268 243 236 237 238 245 253 250 239 229 224 223 220 215 213 209 201 198 196 196 195 195 197 198 198 200 199 199 201 201 199 200 201 203 207
293 292 325 325 317 313 289 267 262 257 251 252 250 234 214 210 211 223 236 229 225 246 253 256 267 281 281 260 253 251 253 258 253 245 245 245 241 234 226 222 220 217 216 211 203 201 201 198 196 196 197 196 197 199 199 201 201 199 198 200 202 205 208
285 288 314 324 321 314 282 262 263 252 235 233 245 245 229 216 203 209 228 227 216 212 209 227 252 256 252 247 244 246 254 269 264 250 250 253 253 249 237 227 221 220 219 212 208 207 204 199 200 200 196 193 196 199 200 200 197 195 197 201 203 206 207
278 288 312 329 302 261 252 263 325 271 247 233 233 237 235 219 211 224 236 221 204 198 185 198 226 237 238 228 208 198 210 229 254 263 266 267 270 271 259 238 228 227 225 219 214 211 208 206 206 204 199 198 200 201 198 196 194 194 198 201 203 206 205
262 296 330 317 234 240 291 344 357 334 314 308 258 241 234 223 218 232 245 234 215 202 192 205 220 220 170 121 124 129 147 175 227 274 278 278 282 282 274 259 241 229 223 222 219 212 211 210 206 202 202 202 202 199 195 194 195 196 198 200 203 204 204
230 295 302 227 244 293 320 337 354 2 14 14 352 272 247 239 221 219 233 241 235 217 208 214 213 170 122 102 101 118 111 107 157 283 290 300 303 295 290 279 257 235 217 212 214 214 214 211 205 201 203 201 197 194 194 195 197 198 198 200 203 203 203
186 224 253 260 300 318 320 341 14 21 0 346 348 265 269 277 235 207 220 233 245 243 224 209 181 141 121 97 265 217 53 35 329 287 290 298 303 300 295 285 273 261 234 213 210 210 206 202 202 203 203 199 194 192 193 194 196 196 198 201 203 204 204
183 208 263 289 310 295 258 236 315 290 262 260 179 181 283 305 342 308 246 231 238 240 218 182 163 138 134 193 239 260 355 356 341 328 309 300 304 303 301 304 310 309 281 230 211 203 195 195 200 200 196 192 191 191 191 192 193 193 198 203 204 204 206
179 192 227 231 240 246 233 248 286 292 282 218 125 150 273 309 0 349 316 268 249 235 200 164 151 144 169 215 236 255 331 336 344 338 318 314 312 302 313 332 333 325 317 255 206 196 191 194 196 193 190 187 186 189 191 191 192 196 201 204 204 205 206
190 195 219 228 238 251 259 298 312 312 315 118 129 210 259 316 342 334 314 291 271 247 207 169 161 172 196 203 202 177 17 342 337 333 318 315 322 329 344 355 358 1 15 54 142 162 180 192 191 187 186 186 186 191 194 193 197 204 207 207 205 206 205
205 201 223 255 255 252 272 302 311 321 354 112 162 212 273 321 321 314 307 298 286 258 218 193 181 191 184 130 118 103 65 41 6 348 327 306 339 357 4 8 15 28 41 55 62 52 50 174 189 186 183 184 191 193 191 195 206 211 212 210 207 206 204
218 199 209 246 258 258 251 258 304 355 50 167 230 282 314 318 311 311 314 314 322 335 279 231 168 137 118 102 102 100 76 62 42 15 20 47 36 24 22 22 25 35 44 49 49 41 37 52 170 187 184 182 188 188 190 205 214 214 214 212 209 207 205
215 197 200 219 230 239 238 232 6 32 64 225 284 312 322 324 321 321 324 336 355 11 11 17 107 120 118 103 97 92 71 61 53 33 32 44 40 31 28 26 27 34 42 43 41 37 37 44 57 152 184 185 185 186 200 215 218 214 214 213 210 208 206
200 196 205 203 185 208 238 213 116 104 232 271 288 300 320 337 332 324 328 351 12 27 33 33 87 101 101 100 99 89 74 65 60 49 41 38 38 37 33 26 27 35 45 43 38 37 37 40 45 51 72 172 194 201 218 229 223 214 213 212 209 208 209
248 239 227 165 134 162 210 122 123 131 132 305 293 280 298 345 333 328 334 348 14 33 25 354 16 61 70 84 90 86 84 74 63 59 55 46 44 47 44 37 33 38 46 49 46 42 36 34 38 42 44 46 42 306 294 284 244 220 213 209 207 208 210
285 262 230 142 127 147 148 128 124 112 83 349 316 312 320 327 323 331 352 357 14 37 38 15 4 19 38 60 69 69 70 64 53 52 52 46 44 48 48 44 41 45 49 49 50 47 38 35 36 38 42 46 40 17 358 343 267 228 217 211 209 210 211
279 251 196 126 134 164 155 134 113 96 86 45 3 351 334 328 326 327 356 31 40 56 57 40 12 0 12 30 44 52 56 53 47 44 41 39 37 37 38 37 38 45 50 48 48 46 38 34 35 36 39 39 33 25 21 21 3 254 226 218 217 215 214
270 263 259 108 135 167 154 129 108 100 112 120 65 35 355 341 337 330 328 334 42 82 76 60 27 356 353 4 19 37 46 45 46 47 45 44 43 40 38 34 33 37 40 40 43 43 38 33 32 34 35 33 28 25 22 16 6 336 263 234 230 228 225
282 270 252 146 129 139 120 119 109 100 117 114 76 55 19 352 343 340 333 321 318 72 92 86 61 10 338 334 351 21 41 39 41 47 48 49 49 46 44 43 41 42 40 37 36 33 29 29 30 31 32 30 27 25 21 15 8 357 335 295 265 253 246
274 262 238 178 157 191 181 142 121 114 134 116 89 74 48 10 351 348 338 323 325 13 65 82 80 53 331 300 299 41 66 55 48 49 49 50 50 45 46 49 49 48 46 43 41 36 28 29 32 32 32 32 29 25 21 17 13 7 352 333 313 296 292
271 283 288 285 156 166 199 155 126 135 176 126 97 82 62 49 23 3 346 329 333 357 22 48 65 53 337 294 276 109 78 63 60 61 57 57 55 46 44 48 48 46 44 42 41 36 30 34 40 39 36 34 28 22 17 14 12 12 11 7 3 0 0
273 279 283 292 318 327 207 144 122 133 196 129 106 95 65 55 41 21 4 343 340 353 4 23 44 38 332 293 286 29 66 52 51 60 60 59 58 54 49 48 48 45 42 39 37 31 28 38 49 49 42 33 22 16 16 15 15 17 19 21 27 27 20
259 265 272 288 306 335 80 103 105 108 117 109 107 98 76 59 46 31 15 357 354 0 5 18 30 17 320 289 293 359 53 45 38 49 56 53 51 50 45 41 39 37 38 41 42 39 36 37 45 49 44 28 15 20 32 31 25 21 20 20 24 24 23